Home   Weather   Le Havre   Past weeks

Flag for France Past Weather in Le Havre, Upper Normandy, France — Yesterday and Last 2 Weeks

Now
55 °F

Clear.


Feels Like: 53 °F
Forecast: 47 / 53 °F
Wind: 8 mph from South

Location: La Heve

Current Time: Dec 7, 2016 at 7:24:13 pm

Latest Report: Dec 7, 2016 at 7:00 pm


Visibility: 10 mi

Pressure: 30.39 "Hg

Humidity: 59%

Dew Point: 41 °F

Location of Le HavreLocation

Past Weather in Le Havre — Graph

°F

Le Havre Temperature Yesterday

Maximum temperature yesterday: 55 °F (at 1:30 pm)
Minimum temperature yesterday: 37 °F (at 6:30 am)
Average temperature yesterday: 46 °F

High & Low Weather Summary for the Past Weeks

 TemperatureHumidityPressure
High57 °F (Dec 7, 1:30 pm)100% (Nov 23, 6:00 am)30.57 "Hg (Nov 23, 6:00 am)
Low27 °F (Nov 30, 1:30 am)39% (Nov 28, 2:30 pm)29.80 "Hg (Nov 22, 6:00 pm)
Average42 °F82%30.21 "Hg
* Reported Nov 22 6:00 pm — Dec 7 6:00 pm, Le Havre, Weather by CustomWeather, © 2016

Note: Actual official high and low records may vary slightly from our data, if they occured in-between our weather recording intervals... More about our weather records

Advertising

Le Havre Weather History for the Previous 24 Hours

Scroll right to see more
 ConditionsComfort  
Time TempWeatherWind HumidityBarometerVisibility
6:00 pm
Wed, Dec 7
55 °FClear.8 mph59%30.39 "Hg10 mi
5:30 pm55 °FClear.6 mph59%30.39 "Hg10 mi
5:00 pm55 °FPassing clouds.7 mph63%30.39 "HgN/A
4:30 pm55 °FSunny.8 mph63%30.36 "Hg10 mi
3:30 pm55 °FSunny.9 mph63%30.36 "Hg10 mi
3:00 pm57 °FSunny.10 mph59%30.39 "Hg10 mi
2:30 pm57 °FSunny.9 mph59%30.39 "Hg10 mi
2:00 pm57 °FSunny.9 mph59%30.39 "Hg10 mi
1:30 pm57 °FPassing clouds.10 mph59%30.39 "HgN/A
1:00 pm55 °FSunny.10 mph63%30.39 "Hg10 mi
12:30 pm55 °FSunny.7 mph63%30.39 "Hg10 mi
12:00 pm55 °FSunny.8 mph63%30.39 "Hg10 mi
11:30 am54 °FPassing clouds.9 mph63%30.39 "HgN/A
11:00 am54 °FPassing clouds.9 mph63%30.39 "HgN/A
10:30 am54 °FSunny.14 mph63%30.39 "Hg10 mi
10:00 am50 °FSunny.12 mph71%30.39 "Hg10 mi
9:30 am48 °FSunny.8 mph76%30.39 "Hg10 mi
9:00 am48 °FSunny.10 mph76%30.39 "Hg10 mi
8:30 am48 °FClear.10 mph76%30.36 "Hg10 mi
8:00 am46 °FClear.9 mph87%30.36 "Hg10 mi
7:30 am46 °FClear.5 mph87%30.39 "Hg6 mi
7:00 am46 °FClear.6 mph87%30.39 "Hg6 mi
6:30 am48 °FClear.7 mph82%30.39 "Hg10 mi
6:00 am46 °FClear.5 mph87%30.36 "Hg10 mi
5:30 am48 °FClear.5 mph82%30.36 "Hg10 mi
5:00 am48 °FClear.6 mph82%30.36 "Hg6 mi
4:30 am48 °FClear.7 mph82%30.36 "Hg10 mi
4:00 am48 °FClear.6 mph87%30.36 "Hg6 mi
3:30 am48 °FClear.8 mph87%30.39 "Hg5 mi
3:00 am48 °FClear.7 mph87%30.39 "Hg6 mi
2:30 am46 °FClear.7 mph87%30.39 "Hg5 mi
2:00 am48 °FClear.7 mph87%30.39 "Hg5 mi
1:30 am48 °FClear.8 mph87%30.39 "Hg6 mi
1:00 am48 °FClear.7 mph87%30.39 "Hg6 mi
12:30 am48 °FClear.5 mph87%30.39 "Hg5 mi
12:00 am48 °FClear.6 mph87%30.39 "Hg5 mi
11:30 pm
Tue, Dec 6
48 °FClear.7 mph87%30.39 "Hg6 mi
11:00 pm48 °FClear.7 mph94%30.39 "Hg5 mi
10:30 pm48 °FClear.3 mph87%30.39 "Hg4 mi
10:00 pm48 °FClear.5 mph87%30.39 "Hg5 mi
9:30 pm50 °FClear.6 mph88%30.39 "Hg5 mi
9:00 pm48 °FClear.6 mph87%30.39 "Hg4 mi
8:30 pm48 °FClear.6 mph87%30.39 "Hg4 mi
8:00 pm50 °FClear.6 mph88%30.39 "Hg5 mi
7:00 pm52 °FClear.6 mph82%30.39 "Hg6 mi
Weather by CustomWeather, © 2016

See weather overviewHow to use our weather pages